User: anonymous   Login
Location: Unspecified
(0.0000°N, 0.0000°E)
Time: 18:07:22
(UTC+00:00)
Language:

Transit 2A Rocket - Orbit

View from above orbital plane
View from above orbital plane
View from above satellite
View from above satellite

Ground track
Ground track

The orbit data is extracted from the following two-line orbital elements,

1    47U 60007C   19265.12016592 -.00000057  00000-0  12276-4 0  9998
2    47  66.6658 155.1289 0223356 141.9049 219.8089 14.42049395 96294
Epoch (UTC): 22 September 2019 02:53:02
Eccentricity: 0.0223356
inclination: 66.6658°
perigee height: 592 km
apogee height: 911 km
right ascension of ascending node: 155.1289°
argument of perigee: 141.9049°
revolutions per day: 14.42049395
mean anomaly at epoch: 219.8089°
orbit number at epoch: 9629

The dashed part of the orbit path shows where the satellite is in the earth's shadow,  

DLR